Location: Trois-Rivi�res
(46.3500°N, 72.5500°W)
Time: 14:54:10
(UTC-05:00)

Cosmos 1544 - Visible Passes

Search period start: 22 December 2014 00:00
Search period end: 01 January 2015 00:00
Orbit: 496 x 519 km, 82.5° (Epoch: 21 December)

Date Brightness Start Highest point End Pass type
(mag) Time Alt. Az. Time Alt. Az. Time Alt. Az.
27 Dec 6.2 06:56:35 10° ESE 06:58:49 15° E 07:01:04 10° NE visible
28 Dec 6.4 06:39:46 10° ESE 06:41:14 12° E 06:42:42 10° ENE visible
31 Dec 4.8 17:11:40 10° NNE 17:13:53 15° ENE 17:16:04 10° ESE visible
31 Dec 4.2 18:46:00 10° NNW 18:49:42 47° W 18:53:22 10° SSW visible
